Latest Coastal Weather Observations for Geelong Racecourse

IDV60701

Issued at 6:51 am EST Monday 27 May 2024 (issued every 10 minutes, with the page automatically refreshed every 10 minutes)

About coastal observations | Map of coastal stations | Coastal observations for VIC | Marine services | Other Formats
Station Details ID: 087184 Name: GEELONG RACECOURSE Lat: -38.17 Lon: 144.38 Height: 12.9 m
Data from the previous 72 hours. | See also: Recent months at Geelong Racecourse
Date/Time
EST
Wind Sea
Height
m
Swell Vis
km
Cloud Weather Temp
°C
Press
MSL
hPa
Rain since
9am
mm
Dir  Spd
kts
Gust
kts
Height
m
Period
s
Dir
27/06:30am CALM 0 0 - - - - - - - 5.6 1025.2 0.0
27/06:00am CALM 0 0 - - - - - - - 5.9 1025.1 0.0
27/05:30am CALM 0 0 - - - - - - - 5.8 1024.8 0.0
27/05:00am CALM 0 0 - - - - - - - 5.8 1024.9 0.0
27/04:30am CALM 0 0 - - - - - - - 6.0 1024.9 0.0
27/04:00am CALM 0 0 - - - - - - - 6.3 1024.9 0.0
27/03:30am CALM 0 0 - - - - - - - 6.6 1025.1 0.0
27/03:00am CALM 0 0 - - - - - - - 6.7 1025.1 0.0
27/02:30am CALM 0 0 - - - - - - - 6.5 1025.4 0.0
27/02:00am CALM 0 0 - - - - - - - 6.3 1025.4 0.0
27/01:30am CALM 0 0 - - - - - - - 6.4 1025.2 0.0
27/01:00am CALM 0 0 - - - - - - - 7.0 1025.4 0.0
27/12:30am CALM 0 0 - - - - - - - 7.3 1025.4 0.0
27/12:00am CALM 0 0 - - - - - - - 7.8 1025.6 0.0
 
Date/Time
EST
Wind Sea
Height
m
Swell Vis
km
Cloud Weather Temp
°C
Press
MSL
hPa
Rain since
9am
mm
Dir  Spd
kts
Gust
kts
Height
m
Period
s
Dir
26/11:30pm CALM 0 0 - - - - - - - 7.6 1025.5 0.0
26/11:00pm CALM 0 0 - - - - - - - 7.3 1025.4 0.0
26/10:30pm CALM 0 0 - - - - - - - 7.8 1025.4 0.0
26/10:00pm CALM 0 0 - - - - - - - 8.1 1025.3 0.0
26/09:30pm CALM 0 0 - - - - - - - 8.0 1025.4 0.0
26/09:00pm CALM 0 0 - - - - - - - 7.9 1025.2 0.0
26/08:30pm CALM 0 0 - - - - - - - 8.0 1025.0 0.0
26/08:00pm CALM 0 0 - - - - - - - 8.3 1024.9 0.0
26/07:30pm CALM 0 0 - - - - - - - 9.2 1024.8 0.0
26/07:00pm CALM 0 0 - - - - - - - 10.3 1024.8 0.0
26/06:30pm CALM 0 0 - - - - - - - 10.8 1024.7 0.0
26/06:00pm CALM 0 0 - - - - - - - 11.3 1024.7 0.0
26/05:30pm CALM 0 0 - - - - - - - 12.3 1024.5 0.0
26/05:00pm CALM 0 0 - - - - - - - 13.4 1024.3 0.0
26/04:30pm CALM 0 0 - - - - - - - 14.9 1024.3 0.0
26/04:00pm CALM 0 0 - - - - - - - 15.8 1024.2 0.0
26/03:30pm CALM 0 0 - - - - - - - 16.3 1024.1 0.0
26/03:00pm CALM 0 0 - - - - - - - 16.3 1024.0 0.0
26/02:30pm CALM 0 0 - - - - - - - 16.5 1024.0 0.0
26/02:00pm CALM 0 0 - - - - - - - 16.6 1024.4 0.0
26/01:30pm CALM 0 0 - - - - - - - 16.1 1024.8 0.0
26/01:00pm CALM 0 0 - - - - - - - 15.7 1025.1 0.0
26/12:30pm CALM 0 0 - - - - - - - 14.8 1025.4 0.0
26/12:00pm CALM 0 0 - - - - - - - 13.9 1025.7 0.0
26/11:30am CALM 0 0 - - - - - - - 12.4 1026.2 0.0
26/11:00am CALM 0 0 - - - - - - - 11.1 1026.5 0.0
26/10:30am CALM 0 0 - - - - - - - 9.3 1026.7 0.0
26/10:00am CALM 0 0 - - - - - - - 7.9 1026.9 0.0
26/09:30am CALM 0 0 - - - - - - - 7.2 1026.9 0.0
26/09:00am CALM 0 0 - - - - - - - 6.3 1026.9 0.2
26/08:30am CALM 0 0 - - - - - - - 4.9 1026.8 0.2
26/08:00am CALM 0 0 - - - - - - - 4.4 1026.6 0.2
26/07:30am CALM 0 0 - - - - - - - 4.0 1026.2 0.2
26/07:00am CALM 0 0 - - - - - - - 4.1 1026.0 0.2
26/06:30am CALM 0 0 - - - - - - - 5.0 1025.7 0.2
26/06:00am CALM 0 0 - - - - - - - 4.4 1025.6 0.2
26/05:30am CALM 0 0 - - - - - - - 4.9 1025.4 0.2
26/05:00am CALM 0 0 - - - - - - - 5.4 1025.4 0.2
26/04:30am CALM 0 0 - - - - - - - 3.9 1025.4 0.2
26/04:00am CALM 0 0 - - - - - - - 4.2 1025.4 0.2
26/03:30am CALM 0 0 - - - - - - - 4.2 1025.6 0.2
26/03:00am CALM 0 0 - - - - - - - 4.3 1026.0 0.2
26/02:30am CALM 0 0 - - - - - - - 4.6 1026.4 0.2
26/02:00am CALM 0 0 - - - - - - - 4.7 1026.3 0.2
26/01:30am CALM 0 0 - - - - - - - 4.8 1026.4 0.2
26/01:00am CALM 0 0 - - - - - - - 5.6 1026.6 0.2
26/12:30am CALM 0 0 - - - - - - - 5.9 1026.7 0.2
26/12:00am CALM 0 0 - - - - - - - 6.4 1026.8 0.2
 
Date/Time
EST
Wind Sea
Height
m
Swell Vis
km
Cloud Weather Temp
°C
Press
MSL
hPa
Rain since
9am
mm
Dir  Spd
kts
Gust
kts
Height
m
Period
s
Dir
25/11:30pm CALM 0 0 - - - - - - - 6.6 1026.8 0.2
25/11:00pm CALM 0 0 - - - - - - - 6.5 1026.7 0.2
25/10:30pm CALM 0 0 - - - - - - - 6.5 1026.9 0.2
25/10:00pm CALM 0 0 - - - - - - - 7.0 1027.0 0.2
25/09:30pm CALM 0 0 - - - - - - - 7.1 1026.9 0.2
25/09:00pm CALM 0 0 - - - - - - - 7.4 1026.9 0.2
25/08:30pm CALM 0 0 - - - - - - - 7.6 1026.9 0.2
25/08:00pm CALM 0 0 - - - - - - - 8.0 1026.7 0.2
25/07:30pm CALM 0 0 - - - - - - - 8.6 1026.4 0.2
25/07:00pm CALM 0 0 - - - - - - - 9.6 1026.3 0.2
25/06:30pm CALM 0 0 - - - - - - - 9.5 1026.5 0.2
25/06:00pm CALM 0 0 - - - - - - - 10.4 1026.4 0.2
25/05:30pm CALM 0 0 - - - - - - - 10.9 1026.4 0.2
25/05:00pm CALM 0 0 - - - - - - - 12.1 1026.3 0.2
25/04:30pm CALM 0 0 - - - - - - - 13.1 1026.1 0.2
25/04:00pm CALM 0 0 - - - - - - - 14.0 1026.0 0.2
25/03:30pm CALM 0 0 - - - - - - - 14.3 1026.0 0.2
25/03:00pm CALM 0 0 - - - - - - Recent precip. 14.7 1025.9 0.2
25/02:30pm CALM 0 0 - - - - - - - 14.2 1026.0 0.0
25/02:00pm CALM 0 0 - - - - - - - 13.8 1026.2 0.0
25/01:30pm CALM 0 0 - - - - - - - 13.5 1026.4 0.0
25/01:00pm CALM 0 0 - - - - - - - 12.8 1026.8 0.0
25/12:30pm CALM 0 0 - - - - - - - 12.9 1027.1 0.0
25/12:00pm CALM 0 0 - - - - - - - 12.2 1027.8 0.0
25/11:30am CALM 0 0 - - - - - - - 12.1 1028.1 0.0
25/11:00am CALM 0 0 - - - - - - - 12.0 1028.4 0.0
25/10:30am CALM 0 0 - - - - - - - 11.9 1028.4 0.0
25/10:00am CALM 0 0 - - - - - - - 11.9 1028.5 0.0
25/09:30am CALM 0 0 - - - - - - - 10.8 1028.5 0.0
25/09:00am CALM 0 0 - - - - - - - 10.0 1028.6 0.0
25/08:30am CALM 0 0 - - - - - - - 9.7 1028.4 0.0
25/08:00am CALM 0 0 - - - - - - - 9.4 1028.1 0.0
25/07:30am CALM 0 0 - - - - - - - 9.1 1027.9 0.0
25/07:00am CALM 0 0 - - - - - - - 8.9 1027.8 0.0
25/06:30am CALM 0 0 - - - - - - - 8.6 1027.5 0.0
25/06:00am CALM 0 0 - - - - - - - 8.7 1027.4 0.0
25/05:30am CALM 0 0 - - - - - - - 8.7 1027.2 0.0
25/05:00am CALM 0 0 - - - - - - - 9.3 1027.1 0.0
25/04:30am CALM 0 0 - - - - - - - 9.8 1027.0 0.0
25/04:00am CALM 0 0 - - - - - - - 9.5 1027.3 0.0
25/03:30am CALM 0 0 - - - - - - - 9.1 1027.4 0.0
25/03:00am CALM 0 0 - - - - - - - 9.1 1027.5 0.0
25/02:30am CALM 0 0 - - - - - - - 9.7 1027.6 0.0
25/02:00am CALM 0 0 - - - - - - - 10.0 1027.5 0.0
25/01:30am CALM 0 0 - - - - - - - 10.2 1027.5 0.0
25/01:00am CALM 0 0 - - - - - - - 10.3 1027.6 0.0
25/12:30am CALM 0 0 - - - - - - - 10.0 1027.9 0.0
25/12:00am CALM 0 0 - - - - - - - 9.5 1028.1 0.0
 
Date/Time
EST
Wind Sea
Height
m
Swell Vis
km
Cloud Weather Temp
°C
Press
MSL
hPa
Rain since
9am
mm
Dir  Spd
kts
Gust
kts
Height
m
Period
s
Dir
24/11:30pm CALM 0 0 - - - - - - - 9.9 1028.1 0.0
24/11:00pm CALM 0 0 - - - - - - - 10.3 1028.1 0.0
24/10:30pm CALM 0 0 - - - - - - - 10.4 1028.4 0.0
24/10:00pm CALM 0 0 - - - - - - - 10.3 1028.6 0.0
24/09:30pm CALM 0 0 - - - - - - - 9.7 1028.5 0.0
24/09:00pm CALM 0 0 - - - - - - - 9.7 1028.4 0.0
24/08:30pm CALM 0 0 - - - - - - - 10.1 1028.5 0.0
24/08:00pm CALM 0 0 - - - - - - - 10.0 1028.5 0.0
24/07:30pm CALM 0 0 - - - - - - - 10.2 1028.3 0.0
24/07:00pm CALM 0 0 - - - - - - - 11.2 1028.1 0.0
24/06:30pm CALM 0 0 - - - - - - - 11.3 1028.0 0.0
24/06:00pm CALM 0 0 - - - - - - - 11.5 1027.7 0.0
24/05:30pm CALM 0 0 - - - - - - - 11.9 1027.6 0.0
24/05:00pm CALM 0 0 - - - - - - - 12.6 1027.7 0.0
24/04:30pm CALM 0 0 - - - - - - - 13.0 1027.7 0.0
24/04:00pm S 1 9 - - - - - - - 13.5 1027.6 0.0
24/03:30pm S 7 10 - - - - - - - 14.0 1027.5 0.0
24/03:00pm SSE 6 11 - - - - - - - 14.4 1027.4 0.0
24/02:30pm S 6 12 - - - - - - - 14.3 1027.5 0.0
24/02:00pm SSE 1 12 - - - - - - - 15.0 1027.7 0.0
24/01:30pm CALM 0 0 - - - - - - - 14.4 1027.9 0.0
24/01:00pm CALM 0 10 - - - - - - - 14.2 1028.0 0.0
24/12:30pm S 1 8 - - - - - - - 14.3 1028.3 0.0
24/12:00pm CALM 0 0 - - - - - - - 14.8 1028.4 0.0
24/11:30am CALM 0 0 - - - - - - - 14.2 1028.7 0.0
24/11:00am CALM 0 0 - - - - - - - 12.7 1028.8 0.0
24/10:30am CALM 0 0 - - - - - - - 11.7 1029.1 0.0
24/10:00am CALM 0 0 - - - - - - - 10.7 1028.7 0.0
24/09:30am CALM 0 0 - - - - - - - 10.1 1028.8 0.0
24/09:00am CALM 0 0 - - - - - - Recent precip. 10.1 1028.8 0.2
24/08:30am CALM 0 0 - - - - - - - 9.1 1028.8 0.2
24/08:00am CALM 0 0 - - - - - - - 8.5 1028.7 0.0
24/07:30am CALM 0 0 - - - - - - - 7.8 1028.4 0.0
24/07:00am CALM 0 0 - - - - - - - 7.5 1028.1 0.0

Other formats

Comma delimited format used in spreadsheet applications
http://www.bom.gov.au/fwo/IDV60701/IDV60701.94857.axf

JavaScript Object Notation format (JSON) in row-major order
http://www.bom.gov.au/fwo/IDV60701/IDV60701.94857.json

Data quality

Most of these data are generated automatically and are frequently updated. Quality checks on data are not normally performed. It is possible for incorrect values to appear. Refer to information at About Latest Weather Observations and please check the disclaimer before using these data.